Temp
63 63 63 63 63 63 63 63 63 63 64 64 64 64 64 64 64 82 93 95 96 83 83 101 99 99 98 90 94 94 89 86 85 86 89 95 92 95 97 92 93 94 96 97 93
62 62 62 63 63 63 63 63 63 63 63 63 63 63 64 63 83 93 89 84 82 82 101 98 95 96 94 92 96 92 93 88 92 94 93 94 94 94 92 91 89 89 93 94 93
62 62 62 62 63 62 62 62 62 62 62 63 63 63 64 69 87 98 82 83 82 87 103 100 99 98 91 94 92 93 91 94 93 96 97 95 94 98 93 89 93 90 89 91 91
62 62 62 62 62 62 62 62 62 62 62 62 63 63 64 83 84 100 83 82 82 102 102 97 95 91 89 87 92 88 94 95 97 97 96 95 99 94 95 96 99 98 94 92 91
61 61 61 61 62 62 62 62 61 61 61 62 63 64 78 91 95 98 83 85 101 103 99 95 92 92 89 91 92 89 95 98 98 97 97 98 95 95 95 98 101 98 93 92 93
61 61 61 61 61 61 61 61 61 61 60 62 63 62 87 87 103 102 104 102 104 103 99 100 96 97 92 91 91 95 96 98 99 98 97 95 95 96 98 99 96 94 93 95 95
60 60 60 60 60 60 60 60 60 60 61 62 64 77 89 94 103 105 104 104 105 104 98 100 101 97 96 91 97 96 92 98 98 98 97 99 92 93 98 98 94 94 94 94 95
60 60 60 60 60 60 60 59 60 61 63 63 64 84 91 102 106 101 105 102 104 105 102 102 100 97 94 98 95 92 94 90 96 98 97 96 88 98 100 98 94 95 94 93 95
59 59 59 59 59 59 58 58 60 65 65 65 80 88 92 88 98 105 105 101 102 101 102 99 98 94 96 92 89 92 87 87 90 98 95 94 92 96 101 100 96 95 94 94 94
59 59 58 58 58 58 57 58 65 66 74 83 88 86 96 95 101 103 105 104 99 98 95 92 95 92 93 92 82 83 86 88 87 94 94 93 92 99 99 99 98 98 95 94 95
58 58 57 57 57 57 66 84 85 84 87 92 93 93 95 101 103 101 103 100 99 95 88 89 88 87 88 91 89 87 87 86 91 94 92 92 93 97 101 99 98 99 97 96 96
58 57 57 57 56 56 69 90 86 86 84 96 94 94 97 98 93 98 104 94 91 87 90 81 84 90 90 91 89 89 88 87 91 94 94 92 91 97 100 98 99 100 99 99 99
57 57 56 56 56 65 85 89 92 91 85 91 94 93 96 97 93 95 100 98 90 87 86 84 87 90 88 89 89 90 88 87 87 92 95 92 91 93 98 99 101 101 101 102 101
57 57 56 55 64 84 88 89 92 90 80 85 87 93 95 98 91 103 103 98 91 85 87 88 93 86 87 87 91 87 91 91 89 89 85 93 81 91 94 97 100 104 103 103 102
57 56 55 55 71 85 87 91 92 90 65 85 87 98 99 93 96 95 105 98 90 88 88 86 86 86 84 88 91 88 92 90 90 89 87 89 85 90 94 92 96 100 99 100 101
56 56 55 68 73 85 88 90 89 76 64 81 88 86 87 92 94 94 95 100 99 92 90 90 94 91 89 91 93 94 91 91 91 91 80 85 85 85 91 90 94 97 98 97 98
55 55 55 71 87 87 88 89 75 69 84 80 83 87 88 87 90 91 88 87 85 78 78 85 87 93 91 88 93 91 89 79 76 78 79 88 83 88 93 93 92 92 95 97 99
55 53 62 74 86 83 87 82 66 77 79 86 85 86 83 89 89 89 87 85 90 90 85 80 77 89 94 88 87 89 90 81 68 73 80 85 78 87 94 93 94 94 95 95 98
53 80 78 82 81 81 83 72 75 78 81 81 83 80 82 87 88 87 87 87 91 92 82 82 81 92 92 96 94 88 82 94 85 85 79 84 87 92 93 92 91 92 92 92 95
65 79 85 84 82 83 80 68 80 82 83 83 77 82 79 83 83 85 85 91 89 94 96 88 78 91 92 93 92 91 95 82 84 69 68 79 80 85 87 87 88 90 90 92 95
69 79 81 83 85 82 74 78 82 85 83 80 79 79 81 82 85 85 85 90 92 93 95 93 86 85 88 86 87 86 85 87 89 85 74 74 81 92 88 87 87 88 90 92 94
74 76 83 85 77 82 78 79 66 83 85 84 83 82 81 82 83 85 85 88 93 92 85 93 89 80 84 94 94 93 89 90 80 76 82 81 82 94 91 90 90 89 88 90 93
73 79 85 84 74 76 78 78 81 81 82 82 82 84 84 82 77 83 86 92 91 91 88 90 83 77 80 87 88 85 89 91 91 89 79 76 82 92 90 89 88 86 88 88 88
69 72 78 80 81 77 77 77 76 82 81 83 83 84 83 82 85 81 83 86 89 91 71 84 89 82 79 81 87 82 86 89 89 81 82 83 84 84 86 86 84 83 85 86 86
74 72 69 73 76 78 78 77 76 74 81 82 80 81 82 78 82 81 86 87 88 75 86 91 81 84 86 85 85 85 84 85 83 87 82 85 86 90 88 87 85 85 84 84 83
65 66 73 72 71 73 66 74 74 77 77 77 76 82 83 79 82 82 86 87 85 88 88 93 80 82 80 85 84 81 85 86 87 86 86 85 85 94 94 90 85 83 83 81 80
69 70 65 62 71 71 75 75 75 77 80 81 79 77 78 83 87 90 93 92 92 88 86 87 84 78 74 83 80 75 83 85 86 88 87 81 88 91 84 83 83 83 83 81 80
MSLP
1016.52 1016.19 1015.83 1015.40 1015.06 1014.73 1014.39 1014.08 1013.80 1013.41 1013.14 1012.87 1012.62 1012.25 1011.78 1011.40 1010.67 1009.95 1007.67 1006.26 1006.05 1006.32 1006.66 1005.85 1005.78 1005.39 1005.26 1005.23 1004.77 1004.34 1002.06 1001.06 1001.55 1001.29 1001.60 1002.22 1002.28 1003.41 1003.94 1004.32 1005.01 1005.59 1005.50 1006.56 1009.12
1016.52 1016.16 1015.72 1015.32 1014.96 1014.64 1014.33 1014.00 1013.61 1013.23 1012.93 1012.70 1012.42 1012.03 1011.63 1011.34 1009.71 1007.54 1006.49 1006.22 1006.18 1006.32 1005.82 1005.18 1004.85 1005.00 1004.56 1004.39 1004.09 1003.39 1001.11 1001.46 1001.93 1001.67 1001.41 1001.84 1002.07 1002.83 1003.40 1004.01 1004.99 1006.03 1006.84 1007.78 1008.95
1016.48 1016.07 1015.64 1015.27 1014.86 1014.53 1014.21 1013.82 1013.39 1013.09 1012.77 1012.50 1012.22 1011.79 1011.42 1011.09 1008.47 1005.55 1005.97 1006.15 1006.26 1006.28 1005.40 1005.14 1004.90 1004.35 1004.05 1003.98 1003.59 1002.83 1001.26 1001.66 1001.72 1001.68 1001.59 1001.47 1001.84 1002.34 1002.73 1003.32 1003.86 1005.17 1006.79 1007.95 1008.74
1016.39 1016.03 1015.64 1015.23 1014.82 1014.40 1014.01 1013.62 1013.21 1012.91 1012.61 1012.24 1012.00 1011.55 1011.14 1009.85 1006.50 1005.58 1006.05 1006.23 1006.35 1005.68 1005.16 1004.95 1004.64 1004.18 1003.84 1003.45 1003.42 1002.65 1001.94 1001.55 1001.17 1001.40 1001.28 1001.08 1001.25 1001.86 1002.32 1002.67 1003.50 1004.52 1006.42 1007.35 1008.09
1016.46 1016.09 1015.63 1015.13 1014.68 1014.22 1013.79 1013.41 1013.01 1012.67 1012.39 1012.10 1011.78 1011.35 1010.48 1007.96 1005.32 1005.64 1006.17 1006.33 1006.03 1005.61 1004.86 1004.66 1004.31 1003.91 1003.27 1003.16 1003.01 1002.51 1001.53 1001.22 1001.02 1001.11 1001.16 1001.24 1001.27 1001.33 1002.00 1002.87 1003.65 1004.86 1006.22 1006.94 1007.52
1016.51 1015.99 1015.47 1014.94 1014.45 1013.99 1013.55 1013.11 1012.72 1012.34 1012.13 1011.89 1011.58 1011.31 1009.43 1006.43 1005.21 1005.43 1005.48 1005.73 1005.16 1005.03 1004.73 1004.35 1004.03 1004.08 1003.56 1003.07 1002.52 1002.10 1001.49 1000.80 1000.50 1000.52 1000.81 1000.75 1000.79 1001.38 1001.79 1003.03 1003.83 1004.95 1005.81 1006.47 1006.96
1016.42 1015.86 1015.36 1014.79 1014.22 1013.70 1013.25 1012.82 1012.31 1011.98 1011.74 1011.60 1011.38 1010.68 1008.09 1005.49 1005.25 1005.25 1005.33 1004.99 1004.98 1004.59 1004.37 1004.63 1004.46 1003.90 1003.47 1002.62 1002.49 1001.94 1000.78 1000.02 999.97 1000.04 1000.09 1000.42 1000.52 1000.54 1001.80 1002.73 1003.60 1004.34 1005.23 1006.02 1006.51
1016.33 1015.79 1015.23 1014.69 1014.09 1013.48 1012.95 1012.53 1011.98 1011.41 1011.10 1011.11 1011.09 1009.82 1006.19 1005.17 1005.08 1005.27 1005.06 1004.99 1005.09 1004.89 1004.66 1004.86 1004.79 1004.06 1003.37 1002.70 1002.00 1001.04 1000.37 998.93 999.73 999.82 1000.04 1000.08 999.51 1000.24 1001.50 1002.08 1002.96 1003.85 1004.70 1005.51 1006.04
1016.30 1015.72 1015.16 1014.52 1013.86 1013.27 1012.68 1012.21 1011.53 1010.97 1010.70 1010.78 1010.27 1008.44 1005.00 1005.67 1004.80 1004.43 1004.60 1004.22 1004.60 1004.87 1004.89 1005.16 1004.98 1003.84 1002.88 1001.83 1001.05 1000.32 999.33 999.40 999.34 999.77 999.92 999.74 998.90 1000.15 1000.94 1001.33 1002.16 1003.17 1004.02 1004.75 1005.48
1016.21 1015.64 1015.04 1014.40 1013.72 1013.00 1012.22 1011.70 1011.04 1010.86 1010.51 1009.87 1008.88 1007.49 1004.70 1003.74 1003.86 1004.14 1004.52 1004.26 1004.12 1004.37 1004.58 1004.66 1003.98 1002.83 1002.08 1000.91 999.76 999.92 999.41 999.44 999.35 999.62 999.67 999.34 999.16 999.14 1000.12 1000.50 1001.02 1002.14 1003.21 1004.01 1004.57
1016.11 1015.54 1014.92 1014.23 1013.50 1012.86 1011.63 1010.42 1010.46 1009.53 1008.32 1005.97 1005.15 1004.16 1003.68 1003.64 1003.92 1003.71 1004.15 1004.13 1004.01 1003.97 1003.61 1004.17 1003.16 1001.57 1001.46 1001.38 1001.13 1000.74 1000.09 999.60 999.58 999.88 999.56 999.04 998.97 998.79 999.11 999.96 1000.25 1000.86 1002.03 1002.86 1003.54
1016.00 1015.41 1014.73 1013.97 1013.19 1012.53 1011.83 1008.76 1008.46 1008.45 1006.32 1004.83 1004.57 1004.14 1003.92 1003.80 1003.04 1003.20 1003.73 1003.63 1003.68 1003.17 1003.73 1004.34 1002.50 1002.17 1002.40 1001.45 1000.95 1000.44 999.70 999.53 999.68 999.85 999.39 999.06 998.67 998.66 998.88 999.35 999.73 1000.00 1000.75 1001.58 1002.40
1015.86 1015.21 1014.48 1013.57 1012.68 1011.81 1010.09 1008.40 1008.42 1008.04 1005.98 1003.55 1003.41 1003.16 1002.98 1003.49 1002.43 1002.29 1002.91 1002.67 1002.94 1002.90 1003.24 1002.50 1002.20 1002.51 1002.27 1001.03 1000.30 1000.02 999.47 999.60 999.33 999.42 999.26 998.94 997.99 998.35 998.76 999.16 999.41 999.69 1000.12 1000.67 1001.25
1015.72 1015.12 1014.45 1013.33 1012.47 1010.35 1008.62 1008.54 1008.26 1008.04 1005.16 1002.62 1002.71 1002.02 1002.53 1002.34 1001.88 1001.71 1002.11 1002.02 1002.26 1002.43 1002.58 1002.21 1001.91 1002.55 1002.07 1000.93 1000.31 999.50 1000.11 999.70 999.33 998.95 997.99 998.92 997.61 997.65 998.28 998.47 998.62 998.78 999.46 999.96 1000.53
1015.52 1014.96 1014.53 1014.51 1012.21 1009.46 1008.72 1008.53 1008.09 1007.35 1003.53 1001.96 1001.86 1002.14 1001.14 1001.22 1000.38 1001.23 1001.69 1001.74 1001.26 1001.60 1002.20 1001.19 1001.67 1001.87 1001.72 1000.81 1000.67 999.79 1000.16 999.76 999.36 998.75 998.64 997.90 997.89 997.37 998.39 998.37 998.77 999.29 999.95 1000.15 1000.36
1015.24 1014.76 1014.29 1012.59 1011.83 1009.16 1008.80 1008.36 1007.82 1005.57 1002.05 1001.04 1001.12 1001.20 1001.16 1000.71 1000.30 1001.06 1001.34 1001.68 1001.10 1001.13 1001.69 1001.00 1001.69 1001.65 1001.39 1001.24 1000.81 1000.46 999.99 999.53 999.31 998.60 997.84 998.08 998.39 997.36 998.02 999.15 999.48 999.88 1000.11 1000.31 1000.32
1014.53 1014.08 1014.12 1012.18 1008.98 1009.16 1008.79 1007.39 1005.43 1003.06 1001.46 1000.53 1000.14 1000.29 1000.02 999.73 999.89 1000.14 1000.38 1000.76 1000.39 1000.66 1000.68 1000.91 1000.97 1000.98 1001.54 1000.96 1000.65 1000.29 999.19 998.28 997.89 997.51 997.27 998.43 998.66 997.70 998.82 999.90 1000.34 1000.53 1000.54 1000.61 1000.32
1013.64 1012.70 1011.44 1010.54 1009.64 1009.34 1007.96 1006.13 1003.66 1001.69 1000.79 1000.57 1000.15 999.77 999.28 998.88 999.16 999.38 999.47 999.52 999.97 999.53 999.07 999.41 999.37 999.64 1000.14 1000.14 999.55 999.11 998.61 997.80 997.36 997.35 997.39 998.67 998.10 998.10 999.48 1000.47 1000.85 1001.01 1001.13 1001.12 1000.72
1012.59 1010.16 1009.77 1009.05 1009.34 1009.36 1006.99 1004.31 1002.09 1001.54 1001.42 1000.68 1000.04 999.42 998.95 998.85 998.75 998.80 998.78 998.58 998.56 999.12 998.95 998.55 998.54 999.17 999.49 999.30 999.53 998.71 998.90 998.37 997.85 997.99 998.18 997.80 997.61 998.78 999.94 1000.41 1001.07 1001.37 1001.58 1001.61 1001.41
1012.18 1009.60 1008.08 1008.55 1008.80 1008.15 1005.88 1003.22 1002.04 1002.34 1001.86 1001.12 999.82 999.27 998.35 998.41 998.55 998.36 998.18 998.22 998.26 998.57 999.03 998.48 998.72 998.70 998.99 999.53 999.56 999.01 998.41 998.33 998.23 997.73 997.37 997.20 997.43 997.82 999.23 1000.26 1001.11 1001.44 1001.91 1002.11 1001.88
1011.62 1008.30 1008.14 1008.34 1008.11 1006.43 1004.02 1002.71 1002.31 1002.42 1002.37 1001.39 1000.39 999.67 998.80 998.08 997.90 997.64 997.58 998.08 998.28 998.14 998.73 998.73 999.00 998.19 998.98 998.48 997.85 998.70 998.47 998.43 997.88 997.38 997.03 996.80 996.56 997.63 999.19 1000.49 1001.04 1001.77 1002.25 1002.49 1002.57
1010.50 1007.59 1007.92 1007.97 1006.46 1004.56 1003.26 1003.06 1003.26 1002.30 1002.34 1001.68 1001.30 1000.38 999.57 999.03 998.11 997.50 997.31 997.81 998.42 998.57 998.62 998.52 998.27 997.76 997.58 997.67 998.10 997.84 997.50 997.46 997.26 997.41 997.75 997.52 997.00 998.55 999.51 1000.63 1001.47 1002.21 1002.92 1003.33 1003.34
1010.12 1007.86 1007.64 1007.22 1004.62 1003.86 1003.50 1003.19 1002.91 1002.34 1001.95 1001.49 1000.92 1000.64 1000.19 999.34 998.84 998.26 998.00 998.04 998.98 998.85 998.63 999.03 998.68 997.57 997.28 997.68 998.50 998.05 997.91 997.88 997.60 997.41 997.07 997.02 997.05 998.95 999.91 1000.93 1002.01 1002.82 1003.30 1003.76 1004.17
1010.78 1007.36 1006.71 1006.36 1005.24 1003.71 1002.84 1002.51 1002.35 1002.62 1002.26 1001.91 1001.26 1001.05 1000.32 999.58 999.15 998.51 998.40 999.03 999.16 999.06 999.61 999.23 997.78 997.38 996.31 996.53 996.82 997.35 997.45 997.24 997.21 996.78 996.52 996.47 997.29 998.96 999.92 1000.88 1002.52 1003.52 1004.02 1004.39 1004.74
1010.71 1008.39 1008.03 1005.49 1004.73 1003.92 1003.49 1002.67 1002.14 1002.12 1002.40 1002.16 1001.24 1000.95 1000.09 999.51 998.88 998.63 998.27 998.53 999.16 999.67 999.44 998.77 997.85 997.72 997.44 997.56 997.67 997.48 997.46 997.45 997.35 996.91 996.40 996.35 996.63 997.43 999.30 1000.88 1002.49 1003.55 1004.32 1004.84 1005.30
1011.50 1010.24 1008.72 1006.98 1005.91 1004.84 1003.79 1002.94 1002.54 1002.15 1002.30 1001.48 1001.51 1000.63 1000.39 999.93 999.15 998.18 998.08 997.97 997.95 999.02 998.72 998.44 998.15 998.45 997.86 997.84 998.19 997.99 997.84 997.75 997.53 997.55 997.41 997.65 997.47 998.28 999.50 1001.33 1002.99 1003.73 1004.49 1005.28 1005.92
1012.89 1012.02 1010.66 1007.53 1005.86 1005.03 1003.66 1003.39 1002.90 1002.90 1002.31 1002.27 1001.99 1001.73 1001.06 1000.51 1000.14 999.59 998.89 998.35 998.00 998.15 998.16 998.07 998.02 998.56 997.87 997.96 998.54 998.10 997.88 997.76 997.60 997.80 997.86 997.78 997.82 998.97 1000.79 1002.16 1003.09 1003.86 1004.80 1005.53 1006.21
Wind_Speed
15 15 15 15 15 15 15 15 15 14 14 13 13 13 13 12 16 7 9 2 4 7 7 4 7 6 5 4 3 3 6 7 7 6 7 5 5 3 3 8 2 3 6 19 22
15 15 16 16 16 15 15 15 15 15 14 13 13 13 12 11 11 10 6 4 7 8 8 6 4 7 4 3 3 6 2 7 3 4 5 2 5 9 7 8 6 8 10 22 24
16 16 16 16 16 16 15 15 15 15 14 14 13 13 12 13 8 6 7 10 5 7 3 3 5 6 5 4 1 1 7 4 2 2 3 3 5 6 4 7 7 12 18 22 22
17 17 17 17 17 16 16 15 15 15 14 14 13 13 12 7 2 6 9 9 7 8 5 2 4 4 4 2 2 6 1 4 3 0 3 2 1 4 5 9 4 12 19 23 23
17 17 17 17 17 17 17 16 16 15 15 14 13 12 9 8 1 6 9 9 10 8 4 2 1 3 3 3 3 6 7 5 4 5 7 3 5 0 6 5 8 17 19 21 21
18 18 18 18 18 18 17 17 16 16 15 13 11 11 7 8 3 8 11 10 8 9 3 3 4 6 4 3 5 9 10 9 5 3 5 7 1 5 7 11 15 17 18 18 20
18 18 18 19 20 19 19 18 18 17 15 11 8 6 7 6 2 8 9 7 7 5 3 3 6 7 7 3 4 7 8 6 2 2 4 8 8 6 13 14 16 16 16 16 17
19 19 19 20 20 20 20 19 19 17 12 8 6 6 7 3 1 8 9 8 6 3 3 3 4 7 5 6 5 6 7 7 6 3 4 8 12 9 13 14 14 14 15 16 18
19 20 20 20 20 20 20 19 18 9 0 7 8 7 4 4 7 11 11 9 9 4 2 4 6 6 5 6 8 5 4 5 4 3 0 7 8 7 10 11 11 14 14 16 16
20 20 21 21 21 20 22 15 1 5 5 6 5 7 7 4 9 9 9 7 5 8 6 3 6 8 7 9 4 3 5 5 2 2 3 3 2 2 7 8 9 12 14 15 17
22 22 23 23 22 22 15 6 7 8 8 10 1 5 6 5 7 10 12 10 6 6 10 4 10 8 4 3 4 3 1 2 9 4 5 3 1 5 7 4 6 10 14 16 17
23 23 24 24 22 19 8 6 6 6 8 13 15 11 6 1 7 11 13 13 9 11 8 6 11 2 1 2 2 5 7 6 5 6 7 3 1 4 7 3 2 6 11 15 17
23 24 25 25 25 7 6 2 2 6 8 6 11 14 14 10 9 16 18 15 12 13 12 13 6 5 8 3 7 3 5 3 4 2 2 7 11 2 9 3 1 1 3 9 14
23 23 23 29 8 5 3 4 8 6 7 11 10 9 11 11 11 9 17 13 9 15 10 10 5 7 10 7 8 11 3 1 3 8 2 2 5 7 3 4 4 9 7 4 10
23 23 22 15 12 5 6 6 3 6 7 8 8 5 7 20 10 14 16 12 14 10 9 6 10 11 11 8 4 7 3 3 2 8 6 9 7 7 3 4 9 12 10 8 6
23 22 21 5 6 8 6 6 6 8 7 6 7 11 14 19 13 11 16 11 10 13 11 7 2 6 7 8 7 5 7 6 5 9 10 9 6 6 4 6 9 12 11 10 9
26 24 14 6 2 2 6 6 8 9 4 7 6 10 17 16 19 15 20 19 13 14 15 14 15 12 10 11 12 10 11 9 8 9 1 7 7 5 8 4 7 9 11 11 10
31 27 8 7 3 6 7 8 9 2 5 3 2 7 16 15 20 17 18 20 22 19 12 15 15 19 17 17 15 13 14 10 7 8 4 6 6 6 12 4 3 5 9 11 13
32 4 4 5 7 6 9 12 5 2 3 4 4 11 14 14 11 18 17 19 19 17 18 10 13 5 4 9 12 11 12 11 14 6 11 13 5 14 8 5 3 5 8 11 12
7 5 3 0 7 8 10 14 6 3 4 4 7 5 14 17 16 19 18 13 15 17 20 7 10 10 9 6 6 12 3 10 11 17 17 11 4 4 13 5 3 6 9 10 13
5 6 6 6 7 7 11 15 11 5 5 4 3 4 6 6 18 16 19 11 8 14 20 18 11 6 7 14 13 10 11 10 13 9 11 12 8 8 8 4 4 6 8 10 12
5 5 6 4 9 7 12 7 1 7 7 6 6 7 6 3 11 16 18 9 5 5 13 19 10 14 16 11 4 11 12 16 12 14 10 13 11 7 9 7 6 8 8 7 8
5 3 5 5 7 9 5 10 8 8 8 5 6 5 1 3 5 9 10 5 8 13 9 9 10 11 13 9 8 11 16 16 16 14 15 11 9 8 10 9 6 7 7 6 4
5 5 5 6 3 9 9 12 10 6 10 8 8 6 9 10 6 3 9 7 5 10 5 8 14 13 11 2 4 10 13 16 20 15 14 15 13 11 12 13 10 8 6 4 5
2 3 6 6 10 7 5 1 11 7 9 6 7 14 13 12 11 10 8 10 8 8 7 13 12 7 12 3 6 7 8 10 16 19 18 13 12 8 14 13 11 9 7 5 5
6 5 3 5 4 9 7 9 9 6 6 7 11 8 8 12 11 7 11 10 13 11 11 10 7 6 10 6 8 10 10 12 13 15 16 14 15 5 10 12 11 9 9 7 6
3 2 5 3 5 6 11 12 8 3 6 7 8 7 11 10 9 12 11 8 6 9 12 10 7 7 12 5 8 13 14 16 15 14 14 17 13 10 13 13 11 11 9 8 6
Wind_Direction
344 342 339 338 335 335 334 329 325 326 325 324 325 320 316 311 295 223 245 92 170 154 205 177 207 211 208 249 276 275 241 73 49 19 57 123 185 152 117 139 154 86 67 125 145
345 343 341 339 336 335 331 325 323 323 321 323 322 319 312 315 275 248 125 147 138 161 211 216 198 192 235 248 224 263 286 50 14 21 358 146 232 150 180 157 151 124 109 130 152
347 345 342 340 337 334 330 325 322 320 318 320 320 315 308 301 264 88 140 174 152 210 229 255 254 285 268 236 79 326 13 47 98 27 341 40 198 189 203 178 156 162 146 153 162
349 344 340 338 335 332 330 325 319 316 315 317 317 311 309 255 337 67 160 163 201 223 216 239 250 252 269 302 327 267 269 325 18 312 279 312 34 189 210 65 84 144 158 161 171
345 341 338 336 333 330 326 321 317 315 313 312 312 311 278 240 360 101 159 152 179 202 173 176 236 274 260 326 252 248 339 309 265 262 266 263 227 251 179 121 134 137 160 171 176
342 339 337 334 332 328 323 320 315 309 304 303 302 304 258 265 57 144 169 172 188 199 188 267 358 347 281 285 291 326 299 279 274 232 234 243 184 199 130 145 138 152 167 175 180
340 338 336 334 331 326 322 319 312 303 294 287 283 272 259 295 24 157 179 198 176 217 164 39 348 307 338 264 324 288 278 183 157 31 245 226 173 188 136 156 155 164 168 176 184
339 336 334 332 328 324 321 316 309 302 287 255 233 245 270 99 174 177 189 161 181 168 346 46 340 304 266 316 229 239 248 173 87 343 92 243 106 116 158 165 168 169 171 180 189
337 335 334 331 326 322 318 311 301 312 211 169 210 249 249 143 199 179 194 176 175 170 116 34 285 283 237 247 197 214 125 100 160 42 305 271 77 103 173 187 175 179 182 186 189
338 336 333 331 328 324 316 295 304 254 200 217 263 245 205 174 145 161 181 178 176 174 179 224 244 245 215 227 163 96 168 103 79 115 223 240 312 39 170 220 206 193 187 196 197
341 338 336 333 326 326 314 204 208 183 212 250 90 263 138 116 162 185 176 191 195 208 210 235 250 217 86 29 339 285 221 113 74 54 236 107 341 5 98 208 217 203 198 200 207
339 337 334 330 323 319 275 267 46 356 288 228 246 251 233 322 178 167 180 193 203 215 138 220 233 188 267 300 240 189 193 113 107 66 270 54 284 11 58 84 322 202 207 210 202
336 335 334 328 320 275 302 315 55 323 258 228 213 225 215 207 222 173 192 196 204 222 214 248 90 142 271 217 213 136 40 71 42 134 162 313 222 184 126 152 117 194 243 213 221
332 333 335 328 287 350 213 133 306 240 265 168 197 206 191 213 221 190 204 194 175 223 212 242 210 197 249 252 267 148 21 315 206 249 222 299 320 186 45 136 53 64 36 229 222
329 330 329 326 318 247 56 313 291 227 265 110 144 82 181 193 145 184 195 204 226 189 205 198 195 195 225 269 272 70 346 3 306 256 282 176 269 85 128 68 30 29 16 9 322
324 324 329 200 221 276 300 297 226 229 235 148 147 180 177 204 197 132 179 227 243 224 226 254 118 199 196 257 250 297 242 221 222 266 259 98 302 157 88 19 354 358 10 5 354
320 315 301 279 349 336 297 214 224 248 120 156 184 186 202 181 190 187 185 197 202 202 213 218 222 223 221 221 243 232 236 238 222 213 295 96 275 275 122 54 7 352 1 7 10
321 311 171 231 273 290 228 215 240 334 252 107 232 201 204 189 199 197 194 202 214 215 242 209 210 211 201 214 244 212 250 268 269 260 245 159 249 99 106 102 32 11 16 20 31
312 196 218 176 209 235 222 215 225 263 356 301 201 210 194 191 225 201 212 215 209 216 230 208 237 139 223 232 225 210 237 275 284 237 269 271 161 163 163 121 107 62 47 39 47
307 273 160 210 185 217 222 236 227 276 313 259 264 225 201 196 202 198 199 218 227 215 234 218 259 185 149 206 214 269 313 219 224 263 265 259 207 248 175 146 132 88 74 67 69
248 248 60 145 192 212 222 223 238 224 261 283 283 258 266 202 208 200 208 190 204 209 217 232 232 205 184 208 223 186 225 231 285 283 275 263 244 104 140 152 125 88 80 80 77
288 234 133 243 201 205 228 208 280 221 197 256 283 281 281 244 217 229 215 221 167 190 210 218 229 238 227 228 271 289 249 228 231 230 235 281 278 136 133 146 150 114 107 90 64
307 316 161 262 223 208 174 222 242 220 223 224 248 244 290 280 237 228 218 129 187 191 193 168 220 235 227 193 200 232 232 245 254 258 266 261 268 149 141 148 143 134 134 122 37
276 218 155 221 293 287 208 220 211 204 251 250 266 254 253 251 211 209 199 166 178 218 8 226 245 232 251 4 3 197 234 231 240 239 244 243 256 171 178 164 156 155 145 119 75
258 64 356 190 210 233 239 312 219 214 221 220 225 240 244 244 226 219 223 158 175 159 201 224 243 234 260 317 282 281 269 220 244 254 268 285 283 229 182 177 173 156 152 146 108
321 331 332 292 261 235 194 210 239 215 234 228 239 263 264 241 253 242 212 215 186 179 197 204 235 243 254 214 246 260 256 260 243 255 271 274 275 325 154 146 169 155 145 131 104
21 257 284 137 221 236 233 239 229 243 219 269 283 293 245 243 288 289 288 307 297 224 209 226 228 224 255 269 290 262 255 262 253 259 266 262 279 153 164 179 165 148 140 123 98